This is the latest recevied weather packets stored in our database for station/object AA6HF. If no packets are shown the sender has not sent any weather packets the latest 1 day(s).
| Time | Temp. | Humidity | Pressure | Rain* | Wind** | Luminosity | Snow |
|---|---|---|---|---|---|---|---|
| 1778037623 | 20° C | 37% | 1009.7 hPa | 0 mm | 0 m/s | - | - |
| 1778037323 | 20.56° C | 37% | 1009.6 hPa | 0 mm | 0 m/s | - | - |
| 1778037023 | 20.56° C | 37% | 1009.6 hPa | 0 mm | 0.45 m/s, 324° | - | - |
| 1778036724 | 20.56° C | 37% | 1009.5 hPa | 0 mm | 0.89 m/s, 340° | - | - |
| 1778036423 | 20.56° C | 36% | 1009.4 hPa | 0 mm | 0.89 m/s, 316° | - | - |
| 1778036123 | 20.56° C | 36% | 1009.3 hPa | 0 mm | 0.89 m/s, 14° | - | - |
| 1778035823 | 20.56° C | 36% | 1009.3 hPa | 0 mm | 0.89 m/s, 338° | - | - |
| 1778035524 | 21.11° C | 35% | 1009.1 hPa | 0 mm | 0.89 m/s, 339° | - | - |
| 1778035224 | 21.11° C | 36% | 1009 hPa | 0 mm | 0.89 m/s, 324° | - | - |
| 1778034924 | 21.11° C | 36% | 1009 hPa | 0 mm | 0.89 m/s, 325° | - | - |
| 1778034635 | 21.11° C | 35% | 1008.9 hPa | 0 mm | 0.45 m/s, 26° | - | - |
| 1778034324 | 21.11° C | 35% | 1008.8 hPa | 0 mm | 0.89 m/s, 307° | - | - |
| 1778034024 | 21.11° C | 35% | 1008.7 hPa | 0 mm | 0.89 m/s, 14° | - | - |
| 1778033724 | 21.67° C | 34% | 1008.7 hPa | 0 mm | 0.89 m/s, 26° | - | - |
| 1778033424 | 21.67° C | 34% | 1008.6 hPa | 0 mm | 1.79 m/s, 322° | - | - |
| 1778033124 | 21.67° C | 34% | 1008.5 hPa | 0 mm | 1.79 m/s, 25° | - | - |
| 1778032824 | 22.22° C | 33% | 1008.5 hPa | 0 mm | 1.79 m/s, 316° | - | - |
| 1778032524 | 22.22° C | 32% | 1008.4 hPa | 0 mm | 1.79 m/s, 341° | - | - |
| 1778032224 | 22.78° C | 31% | 1008.4 hPa | 0 mm | 1.34 m/s, 353° | - | - |
| 1778031924 | 22.78° C | 30% | 1008.3 hPa | 0 mm | 0.89 m/s, 298° | - | - |
| 1778031624 | 23.33° C | 30% | 1008.2 hPa | 0 mm | 0.89 m/s, 357° | - | - |
| 1778031324 | 23.33° C | 30% | 1008.2 hPa | 0 mm | 1.34 m/s, 15° | - | - |
| 1778031024 | 23.33° C | 29% | 1008.1 hPa | 0 mm | 1.79 m/s, 345° | - | - |
| 1778030724 | 23.89° C | 28% | 1008 hPa | 0 mm | 1.34 m/s, 294° | - | - |
| 1778030424 | 23.89° C | 28% | 1008 hPa | 0 mm | 1.34 m/s, 331° | - | - |
* Rain latest hour (hover to see other rain measurements)
** Current wind speed in m/s (hover to see current wind gust speed)